Regional Weather Roundup
Issued by NWS Wakefield, VA

Home | Current Version | Previous Version | Text Only | Print | Product List | Glossary Off
Versions: 1 2 3 4 5 6 7 8 9 10 11 12 13 14 15 16 17 18 19 20 21 22 23 24 25 26 27 28 29 30 31 32 33 34 35 36 37 38 39 40 41 42 43 44 45 46 47 48 49 50
000 ASUS41 KAKQ 201114 RWRAKQ REGIONAL WEATHER ROUNDUP NATIONAL WEATHER SERVICE WAKEFIELD VA 700 AM EDT SAT JUL 20 2019 Note: "fair" indicates few or no clouds below 12,000 feet with no significant weather and/or obstructions to visibility. * = Denotes station may not report precipitation (e.g., rain,snow,etc.), thunder or fog. VAZ042-051-052>054-056-201200- NORTHERN VIRGINIA CITY SKY/WX TMP DP RH WIND PRES REMARKS WASH NATIONAL FAIR 82 73 74 SW6 29.94F DULLES FAIR 77 73 87 VRB3 29.96S FORT BELVOIR FAIR 75 74 96 CALM 29.95S QUANTICO FAIR 77 76 96 NW3 29.95S FREDERICKSBRG* FAIR 79 76 91 CALM 29.95S STAFFORD* FAIR 77 77 100 CALM 30.00S WARRENTON FAIR 75 72 91 CALM 29.97S CULPEPER* FAIR 75 73 95 CALM 29.98S FOG MANASSAS* NOT AVBL LEESBURG* FAIR 77 73 88 CALM 29.97S WINCHESTER FAIR 77 70 78 CALM 30.00S FRONT ROYAL* FAIR 77 72 83 SW6 29.99S LURAY* FAIR 72 72 100 CALM 30.02R $$ VAZ048-049-060>072-079>083-201200- CENTRAL AND SOUTH CENTRAL VIRGINIA CITY SKY/WX TMP DP RH WIND PRES REMARKS RICHMOND FAIR 82 75 79 W3 29.96R CHESTERFIELD* FAIR 79 75 87 NW5 29.97R PETERSBURG* NOT AVBL HANOVER FAIR 79 74 84 NW5 29.98R TAPPAHANNOCK* FAIR 76 76 100 CALM 29.97R FOG QUINTON* FAIR 76 76 100 CALM 29.95R CHARLOTTSVILLE FAIR 77 71 82 CALM 29.99S GORDONSVILLE* FAIR 80 74 81 NW3 29.97S ORANGE* FAIR 73 72 94 CALM 29.98S LOUISA* FAIR 75 73 93 CALM 30.02S BUMPASS* FAIR 75 74 95 CALM 29.98R FARMVILLE* FAIR 74 73 98 CALM 29.98S CREWE* FAIR N/A N/A N/A CALM 29.98R FORT PICKETT* FAIR 77 77 100 CALM 29.99R CHASE CITY* FAIR 75 73 93 CALM 30.00R CLARKSVILLE* FAIR 73 73 100 CALM 29.99R SOUTH HILL* FAIR 76 76 99 CALM 30.05R LAWRENCEVILLE* FAIR 76 75 96 CALM 29.99R EMPORIA* FAIR 75 74 95 CALM 29.99R $$ VAZ088>098-201200- SOUTHEAST VIRGINIA CITY SKY/WX TMP DP RH WIND PRES REMARKS NORFOLK FAIR 81 74 79 SW7 29.95R VIRGINIA BEACH FAIR 79 74 84 SW6 29.95R NORFOLK NAVAL FAIR 82 75 79 SW6 29.97R WEST POINT* FAIR 78 77 98 CALM 29.96S SALUDA* FAIR 79 79 100 CALM 29.95R NEWPORT NEWS FAIR 82 74 76 W8 29.95S LANGLEY AFB FAIR 81 76 85 SW6 29.95R FORT EUSTIS FAIR 81 72 76 W5 29.93S WILLIAMSBURG* FAIR 81 75 83 CALM 29.96S HR EXEC AP* FAIR 76 73 91 CALM 29.97R FRANKLIN* FAIR 77 77 98 CALM 29.98R US460-WAKEFLD FAIR 78 74 87 CALM 29.96R $$ VAZ020-022-025-037-045-201200- WEST CENTRAL AND SOUTHWEST VIRGINIA CITY SKY/WX TMP DP RH WIND PRES REMARKS STAUNTON* FAIR 69 68 97 CALM 30.06S WAYNESBORO* FAIR 71 70 99 CALM 30.06R HOT SPRINGS VA FAIR 70 70 100 W10 30.19F LYNCHBURG FAIR 74 71 91 CALM 30.03R DANVILLE FAIR 75 72 90 CALM 30.01R SOUTH BOSTON* FAIR 75 73 96 CALM 30.00R MARTINSVILLE FAIR 72 72 100 CALM 30.06R FOG ROANOKE FAIR 76 70 82 N3 30.06S BLACKSBURG FAIR 70 70 100 CALM 30.15R FOG DUBLIN* FAIR 71 70 98 CALM 30.13R MARION* FAIR 69 69 100 CALM 30.18S FOG HILLSVILLE* FAIR 69 68 96 SW3 30.15R RICHLANDS* FAIR 70 70 99 CALM 30.17S WISE* NOT AVBL ABINGDON* FAIR 69 69 100 CALM 30.14S FOG $$ MDZ021>025-VAZ099-100-201200- SOUTHERN MARYLAND AND THE DELMARVA PENINSULA CITY SKY/WX TMP DP RH WIND PRES REMARKS PATUXENT RIVER FAIR 82 76 81 CALM 29.94R BAY BRIDGE APT FAIR 84 75 74 W6 29.93F LEONARDTOWN FAIR 81 77 89 CALM 29.96S DOVER FAIR 82 78 88 SW7 29.92R GEORGETOWN FAIR 83 79 88 W5 29.94R EASTON SUNNY 82 79 89 CALM 29.97S CAMBRIDGE SUNNY 81 79 94 CALM 29.94R SALISBURY FAIR 82 78 88 W3 29.93R TANGIER FAIR 84 79 84 NW7 29.94S HX 96 OCEAN CITY FAIR 83 78 85 W6 29.93R WALLOPS ISLAND FAIR 85 78 80 W5 29.94R HX 96 ACCOMACK* FAIR 80 79 96 W5 29.95R $$ NCZ012>017-030>032-201200- NORTH CENTRAL AND EASTERN NORTH CAROLINA CITY SKY/WX TMP DP RH WIND PRES REMARKS ROANOKE RAPIDS FAIR 72 72 100 SW3 29.99R RALEIGH FAIR 76 72 87 SW3 30.02R ELIZABETH CITY FAIR 81 76 84 SW7 29.97R AHOSKIE* FAIR 74 74 100 CALM 29.98S EDENTON* NOT AVBL CURRITUCK* FAIR 80 77 92 MISG 29.97R KILL DEVIL HLS FAIR 81 76 85 W3 29.96S MANTEO FAIR 80 76 90 W7 29.98S CAPE HATTERAS FAIR 80 79 96 SW7 30.00R FOG TARBORO* NOT AVBL GOLDSBORO FAIR 77 71 84 SW7 29.99R WASHINGTON FAIR 79 76 90 SW6 30.00R GREENVILLE FAIR 79 73 83 SW5 30.01R NEW BERN FAIR 78 77 96 SW5 30.01R WILMINGTON FAIR 78 73 84 SW7 30.02R $$ VAZ048-201200- ELSEWHERE CITY SKY/WX TMP DP RH WIND PRES REMARKS HARRISBURG PA PTSUNNY 82 73 74 CALM 29.92F BALTIMORE FAIR 81 73 76 W7 29.93S ANNAPOLIS FAIR 85 74 69 CALM 29.93R ANDREWS AFB FAIR 82 74 77 W5 29.94F PHILADELPHIA FAIR 82 74 76 W9 29.91S HENDERSON NC FAIR 73 70 91 CALM 30.01R GREENSBORO FAIR 77 73 87 CALM 30.02R ROCKY MOUNT FAIR 75 73 93 S5 30.00R $$ VAZ100-201200- MARINE STATION/POSITION TIME TEMP WIND PRES WAVE SWELL AIR SEA DIR/SP/G HT/PER HT/PER (UTC) (F) (DEG/KT/KT) (MB) (FT/S) (FT/S) BRANDYWINE LGT 1018 1013.4R CAPE MAY NJ 1030 81 76 260/ 11/ 13 1012.6R LEWES DE 1030 83 70 260/ 9/ 12 1013.2R 15NM E FENWICK I 1050 79 76 230/ 8/ 10 1012.9R 2/ 6 2/ 6 OCEAN-CITY-INLET 1030 82 74 270/ 6/ 8 1014.0R WACHAPREAGUE VA 1030 81 88 280/ 2/ 2 1013.6R THOMAS POINT MD 1100 83 83 280/ 9/ 11 1014.3F GOOSES REEF MD 1100 84 300/ 6/ 8 1014.7 0 COVE POINT MD 1030 84 300/ 5/ 8 1014.5R SOLOMONS ISLAND 1030 84 84 320/ 3/ 5 1013.4R BISHOPS HEAD MD 1024 86 86 300/ 8/ 10 1014.2 PINEY POINT MD 1030 330/ 4/ 5 N/A CAMBRIDGE MD 1024 84 87 1013.5 LEWISETTA VA 1030 82 85 290/ 4/ 4 1013.9R RAPPAHANNOCK LGT 1030 1014.7R YORK RVR RNG VA 1030 82 270/ 9/ 10 1014.5R YORKTOWN VA 1030 80 84 250/ 4/ 5 1013.7R JAMESTOWN VA 1100 81 88 1014.8 0 DOMINION TERM VA 1030 81 290/ 7/ 8 1014.3R KIPTOPEKE VA 1030 81 280/ 8/ 10 N/A CAPE HENRY VA 1030 81 240/ 6/ 10 1014.1R WILLOUBY STN VA 1024 82 250/ 10/ 12 1013.6R S CRANEY ISL VA 1030 81 270/ 2/ 5 1014.2R CAPE HENRY BUOY 1100 79 N/A 2/ 8 1ST LANDING BUOY 1100 82 81 270/ 8/ 10 1013.8 1 64NM E OF VA BCH 1050 82 82 230/ 10/ 12 1014.9R 3/ 6 2/ 6 DUCK PIER NC 1030 82 61 240/ 10/ 13 1014.3R 44100 DUCK FRF 1100 74 N/A 2/ 5 OREGON INLET NC 1024 81 85 220/ 13/ 14 1014.9R HATTERAS NC 1030 79 81 220/ 6/ 9 1015.7R DIAMOND SHLS NC 1050 83 84 240/ 16/ 19 1015.4S 4/ 6 2/ 9 CAPE LOOKOUT NC 1100 82 240/ 9/ 12 1016.5R $$

USA.gov is the U.S. government's official web portal to all federal, state and local government web resources and services.